Location: Heppenheim
(49.6410°N, 8.6370°E)
Time: 15:52:46
(UTC+02:00)

ISS - Pass Details

Date: 10 May 2026
Orbit: 414 x 424 km, 51.6° (Epoch: 21 May)

Event Time Altitude Azimuth Distance (km) Brightness Sun altitude
Rises 00:53:09 0° 276° (W) 2,353 0.2 -22.5°
Reaches altitude 10° 00:55:16 10° 280° (W) 1,491 -0.8 -22.5°
Enters shadow 00:57:20 33° 296° (WNW) 719 -2.4 -22.6°
